Fort Carson, CO

11:10 AM MDT on June 26, 2017 (GMT -0600)
Butts Army Air Field

Weather History for KFCS - January, 2013

Change the Weather History Date:

Friday, January 18, 2013

  Actual Average Record
Temperature  
Mean Temperature 39 °F -  
Max Temperature 57 °F 42 °F 61 °F (2009)
Min Temperature 21 °F 20 °F -19 °F (1984)
Degree Days  
Heating Degree Days 26    
Moisture  
Dew Point 1 °F    
Average Humidity 25    
Maximum Humidity 67    
Minimum Humidity 8    
Precipitation  
Precipitation 0.00 in - - ()
Sea Level Pressure  
Sea Level Pressure 30.22 in    
Wind  
Wind Speed 9 mph (NNW)    
Max Wind Speed 16 mph    
Max Gust Speed -    
Visibility 10 miles    
Events      
Averages and records for this station are not official NWS values.
T = Trace of Precipitation, MM = Missing Value Source: NWS Daily Summary

Daily Weather History Graph

Daily Weather History Graph

Search for Another Location

Airport or City:

Trip Planner

Search our weather history database for the weather conditions in past years. The results will help you decide how hot, cold, wet, or windy it might be!

Date:

Astronomy

Jan. 18, 2013 Rise Set
Actual Time 7:14 AM MST 5:05 PM MST
Civil Twilight 6:45 AM MST 5:34 PM MST
Nautical Twilight 6:12 AM MST 6:06 PM MST
Astronomical Twilight 5:41 AM MST 6:38 PM MST
Moon 10:59 AM MST (1/18) No Moon Set
Length of Visible Light 10h 48m
Length of Day
9h 51m
Waxing Crescent, 48% of the Moon is Illuminated
Jan 18
Waxing Crescent
Jan 18
First Quarter
Jan 26
Full
Feb 3
Last Quarter
Feb 10
New

Hourly Weather History & Observations

Time (MST) Temp. Windchill Dew Point Humidity Pressure Visibility Wind Dir Wind Speed Gust Speed Precip Events Conditions
12:58 AM 24.6 °F 15.8 °F 13.1 °F 62% 30.32 in 10.0 mi NW 8.1 mph - N/A   Clear
1:58 AM 21.6 °F 11.3 °F 12.0 °F 67% 30.32 in 10.0 mi NNW 9.2 mph - N/A   Clear
2:58 AM 24.8 °F 15.3 °F 10.4 °F 54% 30.30 in 10.0 mi NNW 9.2 mph - N/A   Clear
3:58 AM 28.6 °F 18.7 °F 9.1 °F 44% 30.26 in 10.0 mi NNW 11.5 mph - N/A   Clear
4:58 AM 28.9 °F 17.3 °F 6.1 °F 38% 30.27 in 10.0 mi NNW 16.1 mph - N/A   Clear
5:58 AM 27.9 °F 21.5 °F 2.3 °F 34% 30.29 in 10.0 mi NNW 5.8 mph - N/A   Clear
6:58 AM 31.6 °F 26.0 °F 1.0 °F 27% 30.28 in 10.0 mi West 5.8 mph - N/A   Clear
8:58 AM 40.8 °F 35.6 °F 3.4 °F 21% 30.33 in 10.0 mi NNW 8.1 mph - N/A   Clear
9:58 AM 47.8 °F - 2.5 °F 16% 30.29 in 10.0 mi North 3.5 mph - N/A   Clear
10:58 AM 52.5 °F - -0.4 °F 11% 30.27 in 10.0 mi South 5.8 mph - N/A   Clear
11:58 AM 53.6 °F - -4.0 °F 9% 30.22 in 10.0 mi South 6.9 mph - N/A   Clear
1:58 PM 57.0 °F - -3.3 °F 9% 30.15 in 10.0 mi SE 10.4 mph - N/A   Clear
2:58 PM 56.8 °F - -4.0 °F 8% 30.13 in 10.0 mi East 11.5 mph - N/A   Clear
3:58 PM 55.0 °F - -2.9 °F 9% 30.11 in 10.0 mi East 8.1 mph - N/A   Clear
4:58 PM 49.8 °F - -4.7 °F 10% 30.13 in 10.0 mi ESE 8.1 mph - N/A   Clear
5:58 PM 47.1 °F - -4.7 °F 11% 30.17 in 10.0 mi NNW 1.2 mph - N/A   Clear
6:58 PM 36.3 °F 29.5 °F -2.2 °F 19% 30.21 in 10.0 mi NNW 9.2 mph - N/A   Clear
7:58 PM 33.8 °F 23.9 °F -0.4 °F 23% 30.22 in 10.0 mi NNW 15.0 mph - N/A   Clear
8:58 PM 35.1 °F 25.9 °F -0.8 °F 22% 30.17 in 10.0 mi NW 13.8 mph - N/A   Clear
9:58 PM 34.3 °F 25.0 °F -0.8 °F 23% 30.14 in 10.0 mi NNW 13.8 mph - N/A   Clear
10:58 PM 32.7 °F 27.3 °F -2.9 °F 22% 30.12 in 10.0 mi NNW 5.8 mph - N/A   Clear
11:58 PM 33.4 °F 24.8 °F -2.6 °F 21% 30.11 in 10.0 mi NW 11.5 mph - N/A   Clear